Year,Month,Day,Hour,Minute,Value (Times are PST for temperature in C)
2020,08,18,00,00,21.60
2020,08,18,00,01,21.60
2020,08,18,00,02,21.60
2020,08,18,00,03,21.60
2020,08,18,00,04,21.50
2020,08,18,00,05,21.50
2020,08,18,00,06,21.40
2020,08,18,00,07,21.40
2020,08,18,00,08,21.40
2020,08,18,00,09,21.30
2020,08,18,00,10,21.30
2020,08,18,00,11,21.30
2020,08,18,00,12,21.20
2020,08,18,00,13,21.20
2020,08,18,00,14,21.20
2020,08,18,00,15,21.10
2020,08,18,00,16,21.10
2020,08,18,00,17,21.00
2020,08,18,00,18,21.00
2020,08,18,00,19,20.90
2020,08,18,00,20,20.90
2020,08,18,00,21,20.90
2020,08,18,00,22,20.90
2020,08,18,00,23,20.90
2020,08,18,00,24,20.80
2020,08,18,00,25,20.80
2020,08,18,00,26,20.80
2020,08,18,00,27,20.80
2020,08,18,00,28,20.80
2020,08,18,00,29,20.70
2020,08,18,00,30,20.70
2020,08,18,00,31,20.70
2020,08,18,00,32,20.70
2020,08,18,00,33,20.70
2020,08,18,00,34,20.70
2020,08,18,00,35,20.70
2020,08,18,00,36,20.70
2020,08,18,00,37,20.70
2020,08,18,00,38,20.80
2020,08,18,00,39,20.70
2020,08,18,00,40,20.80
2020,08,18,00,41,20.70
2020,08,18,00,42,20.70
2020,08,18,00,43,20.70
2020,08,18,00,44,20.70
2020,08,18,00,45,20.70
2020,08,18,00,46,20.70
2020,08,18,00,47,20.60
2020,08,18,00,48,20.60
2020,08,18,00,49,20.60
2020,08,18,00,50,20.50
2020,08,18,00,51,20.40
2020,08,18,00,52,20.40
2020,08,18,00,53,20.30
2020,08,18,00,54,20.30
2020,08,18,00,55,20.30
2020,08,18,00,56,20.20
2020,08,18,00,57,20.20
2020,08,18,00,58,20.10
2020,08,18,00,59,20.10
2020,08,18,01,00,20.00
2020,08,18,01,01,20.00
2020,08,18,01,02,20.00
2020,08,18,01,03,20.00
2020,08,18,01,04,19.90
2020,08,18,01,05,19.90
2020,08,18,01,06,19.90
2020,08,18,01,07,19.90
2020,08,18,01,08,20.00
2020,08,18,01,09,20.00
2020,08,18,01,10,20.00
2020,08,18,01,11,20.00
2020,08,18,01,12,20.00
2020,08,18,01,13,19.90
2020,08,18,01,14,19.90
2020,08,18,01,15,19.90
2020,08,18,01,16,19.90
2020,08,18,01,17,19.90
2020,08,18,01,18,19.90
2020,08,18,01,19,19.90
2020,08,18,01,20,19.90
2020,08,18,01,21,19.90
2020,08,18,01,22,19.90
2020,08,18,01,23,19.90
2020,08,18,01,24,19.80
2020,08,18,01,25,19.80
2020,08,18,01,26,19.80
2020,08,18,01,27,19.80
2020,08,18,01,28,19.80
2020,08,18,01,29,19.80
2020,08,18,01,30,19.80
2020,08,18,01,31,19.80
2020,08,18,01,32,19.80
2020,08,18,01,33,19.80
2020,08,18,01,34,19.80
2020,08,18,01,35,19.80
2020,08,18,01,36,19.80
2020,08,18,01,37,19.80
2020,08,18,01,38,19.80
2020,08,18,01,39,19.80
2020,08,18,01,40,19.80
2020,08,18,01,41,19.80
2020,08,18,01,42,19.80
2020,08,18,01,43,19.90
2020,08,18,01,44,19.90
2020,08,18,01,45,19.90
2020,08,18,01,46,19.90
2020,08,18,01,47,19.90
2020,08,18,01,48,19.90
2020,08,18,01,49,19.90
2020,08,18,01,50,19.90
2020,08,18,01,51,19.90
2020,08,18,01,52,19.90
2020,08,18,01,53,19.90
2020,08,18,01,54,19.90
2020,08,18,01,55,19.90
2020,08,18,01,56,19.90
2020,08,18,01,57,19.90
2020,08,18,01,58,19.80
2020,08,18,01,59,19.80
2020,08,18,02,00,19.80
2020,08,18,02,01,19.80
2020,08,18,02,02,19.80
2020,08,18,02,03,19.70
2020,08,18,02,04,19.70
2020,08,18,02,05,19.70
2020,08,18,02,06,19.70
2020,08,18,02,07,19.60
2020,08,18,02,08,19.60
2020,08,18,02,09,19.60
2020,08,18,02,10,19.60
2020,08,18,02,11,19.60
2020,08,18,02,12,19.50
2020,08,18,02,13,19.50
2020,08,18,02,14,19.40
2020,08,18,02,15,19.40
2020,08,18,02,16,19.40
2020,08,18,02,17,19.40
2020,08,18,02,18,19.40
2020,08,18,02,19,19.40
2020,08,18,02,20,19.30
2020,08,18,02,21,19.30
2020,08,18,02,22,19.30
2020,08,18,02,23,19.30
2020,08,18,02,24,19.30
2020,08,18,02,25,19.20
2020,08,18,02,26,19.20
2020,08,18,02,27,19.20
2020,08,18,02,28,19.20
2020,08,18,02,29,19.20
2020,08,18,02,30,19.20
2020,08,18,02,31,19.20
2020,08,18,02,32,19.20
2020,08,18,02,33,19.20
2020,08,18,02,34,19.20
2020,08,18,02,35,19.10
2020,08,18,02,36,19.10
2020,08,18,02,37,19.10
2020,08,18,02,38,19.10
2020,08,18,02,39,19.10
2020,08,18,02,40,19.10
2020,08,18,02,41,19.10
2020,08,18,02,42,19.10
2020,08,18,02,43,19.10
2020,08,18,02,44,19.10
2020,08,18,02,45,19.10
2020,08,18,02,46,19.10
2020,08,18,02,47,19.10
2020,08,18,02,48,19.10
2020,08,18,02,49,19.10
2020,08,18,02,50,19.10
2020,08,18,02,51,19.10
2020,08,18,02,52,19.10
2020,08,18,02,53,19.10
2020,08,18,02,54,19.10
2020,08,18,02,55,19.10
2020,08,18,02,56,19.10
2020,08,18,02,57,19.10
2020,08,18,02,58,19.10
2020,08,18,02,59,19.10
2020,08,18,03,00,19.10
2020,08,18,03,01,19.10
2020,08,18,03,02,19.00
2020,08,18,03,03,19.00
2020,08,18,03,04,18.90
2020,08,18,03,05,18.90
2020,08,18,03,06,18.90
2020,08,18,03,07,18.90
2020,08,18,03,08,18.90
2020,08,18,03,09,18.90
2020,08,18,03,10,18.90
2020,08,18,03,11,18.90
2020,08,18,03,12,18.90
2020,08,18,03,13,18.90
2020,08,18,03,14,18.90
2020,08,18,03,15,18.90
2020,08,18,03,16,18.90
2020,08,18,03,17,18.80
2020,08,18,03,18,18.90
2020,08,18,03,19,18.90
2020,08,18,03,20,18.90
2020,08,18,03,21,18.80
2020,08,18,03,22,18.80
2020,08,18,03,23,18.80
2020,08,18,03,24,18.80
2020,08,18,03,25,18.80
2020,08,18,03,26,18.80
2020,08,18,03,27,18.80
2020,08,18,03,28,18.80
2020,08,18,03,29,18.70
2020,08,18,03,30,18.70
2020,08,18,03,31,18.70
2020,08,18,03,32,18.70
2020,08,18,03,33,18.70
2020,08,18,03,34,18.70
2020,08,18,03,35,18.60
2020,08,18,03,36,18.60
2020,08,18,03,37,18.60
2020,08,18,03,38,18.60
2020,08,18,03,39,18.50
2020,08,18,03,40,18.50
2020,08,18,03,41,18.50
2020,08,18,03,42,18.40
2020,08,18,03,43,18.40
2020,08,18,03,44,18.40
2020,08,18,03,45,18.40
2020,08,18,03,46,18.40
2020,08,18,03,47,18.30
2020,08,18,03,48,18.30
2020,08,18,03,49,18.30
2020,08,18,03,50,18.30
2020,08,18,03,51,18.30
2020,08,18,03,52,18.30
2020,08,18,03,53,18.30
2020,08,18,03,54,18.20
2020,08,18,03,55,18.20
2020,08,18,03,56,18.20
2020,08,18,03,57,18.20
2020,08,18,03,58,18.20
2020,08,18,03,59,18.20
2020,08,18,04,00,18.20
2020,08,18,04,01,18.20
2020,08,18,04,02,18.30
2020,08,18,04,03,18.30
2020,08,18,04,04,18.30
2020,08,18,04,05,18.30
2020,08,18,04,06,18.30
2020,08,18,04,07,18.30
2020,08,18,04,08,18.30
2020,08,18,04,09,18.30
2020,08,18,04,10,18.30
2020,08,18,04,11,18.30
2020,08,18,04,12,18.30
2020,08,18,04,13,18.30
2020,08,18,04,14,18.30
2020,08,18,04,15,18.30
2020,08,18,04,16,18.30
2020,08,18,04,17,18.30
2020,08,18,04,18,18.30
2020,08,18,04,19,18.30
2020,08,18,04,20,18.30
2020,08,18,04,21,18.30
2020,08,18,04,22,18.30
2020,08,18,04,23,18.30
2020,08,18,04,24,18.30
2020,08,18,04,25,18.30
2020,08,18,04,26,18.30
2020,08,18,04,27,18.20
2020,08,18,04,28,18.30
2020,08,18,04,29,18.30
2020,08,18,04,30,18.30
2020,08,18,04,31,18.30
2020,08,18,04,32,18.40
2020,08,18,04,33,18.40
2020,08,18,04,34,18.50
2020,08,18,04,35,18.50
2020,08,18,04,36,18.50
2020,08,18,04,37,18.50
2020,08,18,04,38,18.50
2020,08,18,04,39,18.50
2020,08,18,04,40,18.50
2020,08,18,04,41,18.50
2020,08,18,04,42,18.50
2020,08,18,04,43,18.50
2020,08,18,04,44,18.50
2020,08,18,04,45,18.50
2020,08,18,04,46,18.50
2020,08,18,04,47,18.50
2020,08,18,04,48,18.50
2020,08,18,04,49,18.50
2020,08,18,04,50,18.50
2020,08,18,04,51,18.50
2020,08,18,04,52,18.40
2020,08,18,04,53,18.40
2020,08,18,04,54,18.40
2020,08,18,04,55,18.40
2020,08,18,04,56,18.50
2020,08,18,04,57,18.50
2020,08,18,04,58,18.60
2020,08,18,04,59,18.50
2020,08,18,05,00,18.50
2020,08,18,05,01,18.50
2020,08,18,05,02,18.50
2020,08,18,05,03,18.50
2020,08,18,05,04,18.40
2020,08,18,05,05,18.40
2020,08,18,05,06,18.40
2020,08,18,05,07,18.30
2020,08,18,05,08,18.30
2020,08,18,05,09,18.30
2020,08,18,05,10,18.20
2020,08,18,05,11,18.20
2020,08,18,05,12,18.20
2020,08,18,05,13,18.20
2020,08,18,05,14,18.20
2020,08,18,05,15,18.20
2020,08,18,05,16,18.10
2020,08,18,05,17,18.10
2020,08,18,05,18,18.10
2020,08,18,05,19,18.10
2020,08,18,05,20,18.10
2020,08,18,05,21,18.10
2020,08,18,05,22,18.10
2020,08,18,05,23,18.10
2020,08,18,05,24,18.10
2020,08,18,05,25,18.10
2020,08,18,05,26,18.10
2020,08,18,05,27,18.10
2020,08,18,05,28,18.10
2020,08,18,05,29,18.10
2020,08,18,05,30,18.10
2020,08,18,05,31,18.20
2020,08,18,05,32,18.20
2020,08,18,05,33,18.20
2020,08,18,05,34,18.20
2020,08,18,05,35,18.20
2020,08,18,05,36,18.20
2020,08,18,05,37,18.20
2020,08,18,05,38,18.20
2020,08,18,05,39,18.20
2020,08,18,05,40,18.20
2020,08,18,05,41,18.20
2020,08,18,05,42,18.20
2020,08,18,05,43,18.20
2020,08,18,05,44,18.20
2020,08,18,05,45,18.20
2020,08,18,05,46,18.20
2020,08,18,05,47,18.20
2020,08,18,05,48,18.20
2020,08,18,05,49,18.20
2020,08,18,05,50,18.20
2020,08,18,05,51,18.20
2020,08,18,05,52,18.20
2020,08,18,05,53,18.20
2020,08,18,05,54,18.20
2020,08,18,05,55,18.20
2020,08,18,05,56,18.20
2020,08,18,05,57,18.20
2020,08,18,05,58,18.20
2020,08,18,05,59,18.20
2020,08,18,06,00,18.20
2020,08,18,06,01,18.20
2020,08,18,06,02,18.20
2020,08,18,06,03,18.20
2020,08,18,06,04,18.20
2020,08,18,06,05,18.20
2020,08,18,06,06,18.20
2020,08,18,06,07,18.20
2020,08,18,06,08,18.20
2020,08,18,06,09,18.20
2020,08,18,06,10,18.20
2020,08,18,06,11,18.20
2020,08,18,06,12,18.20
2020,08,18,06,13,18.20
2020,08,18,06,14,18.20
2020,08,18,06,15,18.20
2020,08,18,06,16,18.20
2020,08,18,06,17,18.20
2020,08,18,06,18,18.20
2020,08,18,06,19,18.20
2020,08,18,06,20,18.20
2020,08,18,06,21,18.20
2020,08,18,06,22,18.20
2020,08,18,06,23,18.20
2020,08,18,06,24,18.20
2020,08,18,06,25,18.20
2020,08,18,06,26,18.20
2020,08,18,06,27,18.20
2020,08,18,06,28,18.20
2020,08,18,06,29,18.20
2020,08,18,06,30,18.30
2020,08,18,06,31,18.30
2020,08,18,06,32,18.20
2020,08,18,06,33,18.30
2020,08,18,06,34,18.30
2020,08,18,06,35,18.30
2020,08,18,06,36,18.30
2020,08,18,06,37,18.30
2020,08,18,06,38,18.30
2020,08,18,06,39,18.30
2020,08,18,06,40,18.30
2020,08,18,06,41,18.40
2020,08,18,06,42,18.40
2020,08,18,06,43,18.40
2020,08,18,06,44,18.40
2020,08,18,06,45,18.50
2020,08,18,06,46,18.50
2020,08,18,06,47,18.50
2020,08,18,06,48,18.60
2020,08,18,06,49,18.60
2020,08,18,06,50,18.60
2020,08,18,06,51,18.60
2020,08,18,06,52,18.60
2020,08,18,06,53,18.60
2020,08,18,06,54,18.70
2020,08,18,06,55,18.70
2020,08,18,06,56,18.70
2020,08,18,06,57,18.70
2020,08,18,06,58,18.70
2020,08,18,06,59,18.80
2020,08,18,07,00,18.80
2020,08,18,07,01,18.80
2020,08,18,07,02,18.80
2020,08,18,07,03,18.80
2020,08,18,07,04,18.80
2020,08,18,07,05,18.80
2020,08,18,07,06,18.80
2020,08,18,07,07,18.80
2020,08,18,07,08,18.90
2020,08,18,07,09,18.90
2020,08,18,07,10,18.90
2020,08,18,07,11,18.90
2020,08,18,07,12,18.90
2020,08,18,07,13,18.90
2020,08,18,07,14,18.90
2020,08,18,07,15,18.90
2020,08,18,07,16,18.90
2020,08,18,07,17,18.90
2020,08,18,07,18,18.90
2020,08,18,07,19,19.00
2020,08,18,07,20,19.00
2020,08,18,07,21,19.00
2020,08,18,07,22,19.00
2020,08,18,07,23,19.00
2020,08,18,07,24,19.00
2020,08,18,07,25,19.00
2020,08,18,07,26,18.90
2020,08,18,07,27,18.90
2020,08,18,07,28,18.90
2020,08,18,07,29,18.90
2020,08,18,07,30,18.90
2020,08,18,07,31,18.90
2020,08,18,07,32,18.90
2020,08,18,07,33,18.90
2020,08,18,07,34,18.90
2020,08,18,07,35,18.90
2020,08,18,07,36,18.80
2020,08,18,07,37,18.80
2020,08,18,07,38,18.80
2020,08,18,07,39,18.80
2020,08,18,07,40,18.80
2020,08,18,07,41,18.80
2020,08,18,07,42,18.80
2020,08,18,07,43,18.80
2020,08,18,07,44,18.80
2020,08,18,07,45,18.80
2020,08,18,07,46,18.80
2020,08,18,07,47,18.80
2020,08,18,07,48,18.80
2020,08,18,07,49,18.80
2020,08,18,07,50,18.80
2020,08,18,07,51,18.80
2020,08,18,07,52,18.80
2020,08,18,07,53,18.90
2020,08,18,07,54,18.90
2020,08,18,07,55,18.90
2020,08,18,07,56,18.90
2020,08,18,07,57,18.90
2020,08,18,07,58,18.90
2020,08,18,07,59,18.90
2020,08,18,08,00,19.00
2020,08,18,08,01,19.00
2020,08,18,08,02,19.00
2020,08,18,08,03,19.10
2020,08,18,08,04,19.10
2020,08,18,08,05,19.10
2020,08,18,08,06,19.10
2020,08,18,08,07,19.10
2020,08,18,08,08,19.10
2020,08,18,08,09,19.20
2020,08,18,08,10,19.20
2020,08,18,08,11,19.20
2020,08,18,08,12,19.20
2020,08,18,08,13,19.20
2020,08,18,08,14,19.30
2020,08,18,08,15,19.30
2020,08,18,08,16,19.30
2020,08,18,08,17,19.30
2020,08,18,08,18,19.30
2020,08,18,08,19,19.40
2020,08,18,08,20,19.40
2020,08,18,08,21,19.40
2020,08,18,08,22,19.40
2020,08,18,08,23,19.40
2020,08,18,08,24,19.40
2020,08,18,08,25,19.40
2020,08,18,08,26,19.40
2020,08,18,08,27,19.40
2020,08,18,08,28,19.40
2020,08,18,08,29,19.40
2020,08,18,08,30,19.40
2020,08,18,08,31,19.40
2020,08,18,13,03,24.30
2020,08,18,13,04,24.30
2020,08,18,13,05,24.30
2020,08,18,13,06,24.30
2020,08,18,13,07,24.30
2020,08,18,13,08,24.30
2020,08,18,13,09,24.30
2020,08,18,13,10,24.30
2020,08,18,13,11,24.30
2020,08,18,13,12,24.40
2020,08,18,13,13,24.50
2020,08,18,13,14,24.50
2020,08,18,13,15,24.60
2020,08,18,13,16,24.60
2020,08,18,13,17,24.60
2020,08,18,13,18,24.50
2020,08,18,13,19,24.40
2020,08,18,13,20,24.40
2020,08,18,13,21,24.40
2020,08,18,13,22,24.40
2020,08,18,13,23,24.40
2020,08,18,13,24,24.40
2020,08,18,13,25,24.40
2020,08,18,13,26,24.30
2020,08,18,13,27,24.30
2020,08,18,13,28,24.30
2020,08,18,13,29,24.40
2020,08,18,13,30,24.40
2020,08,18,13,31,24.40
2020,08,18,13,32,24.30
2020,08,18,13,33,24.30
2020,08,18,13,34,24.30
2020,08,18,13,35,24.30
2020,08,18,13,36,24.40
2020,08,18,13,37,24.40
2020,08,18,13,38,24.40
2020,08,18,13,39,24.50
2020,08,18,13,40,24.50
2020,08,18,13,41,24.60
2020,08,18,13,42,24.60
2020,08,18,13,43,24.60
2020,08,18,13,44,24.60
2020,08,18,13,45,24.60
2020,08,18,13,46,24.60
2020,08,18,13,47,24.60
2020,08,18,13,48,24.60
2020,08,18,13,49,24.60
2020,08,18,13,50,24.60
2020,08,18,13,51,24.60
2020,08,18,13,52,24.60
2020,08,18,13,53,24.50
2020,08,18,13,54,24.40
2020,08,18,13,55,24.40
2020,08,18,13,56,24.30
2020,08,18,13,57,24.30
2020,08,18,13,58,24.30
2020,08,18,13,59,24.30
2020,08,18,14,00,24.20
2020,08,18,14,01,24.20
2020,08,18,14,02,24.20
2020,08,18,14,03,24.20
2020,08,18,14,04,24.20
2020,08,18,14,05,24.20
2020,08,18,14,06,24.20
2020,08,18,14,07,24.30
2020,08,18,14,08,24.30
2020,08,18,14,09,24.30
2020,08,18,14,10,24.40
2020,08,18,14,11,24.40
2020,08,18,14,12,24.40
2020,08,18,14,13,24.40
2020,08,18,14,14,24.40
2020,08,18,14,15,24.40
2020,08,18,14,16,24.40
2020,08,18,14,17,24.40
2020,08,18,14,18,24.40
2020,08,18,14,19,24.50
2020,08,18,14,20,24.60
2020,08,18,14,21,24.60
2020,08,18,14,22,24.70
2020,08,18,14,23,24.70
2020,08,18,14,24,24.80
2020,08,18,14,25,24.80
2020,08,18,14,26,24.90
2020,08,18,14,27,24.90
2020,08,18,14,28,24.90
2020,08,18,14,29,24.80
2020,08,18,14,30,24.80
2020,08,18,14,31,24.70
2020,08,18,14,32,24.70
2020,08,18,14,33,24.70
2020,08,18,14,34,24.70
2020,08,18,14,35,24.70
2020,08,18,14,36,24.70
2020,08,18,14,37,24.70
2020,08,18,14,38,24.70
2020,08,18,14,39,24.80
2020,08,18,14,40,24.80
2020,08,18,14,41,24.90
2020,08,18,14,42,24.90
2020,08,18,14,43,24.90
2020,08,18,14,44,24.80
2020,08,18,14,45,24.80
2020,08,18,14,46,24.80
2020,08,18,14,47,24.80
2020,08,18,14,48,24.80
2020,08,18,14,49,24.80
2020,08,18,14,50,24.80
2020,08,18,14,51,24.80
2020,08,18,14,52,24.90
2020,08,18,14,53,24.90
2020,08,18,14,54,24.90
2020,08,18,14,55,24.90
2020,08,18,14,56,25.00
2020,08,18,14,57,24.90
2020,08,18,14,58,25.00
2020,08,18,14,59,24.90
2020,08,18,15,00,24.90
2020,08,18,15,01,24.90
2020,08,18,15,02,24.90
2020,08,18,15,03,24.90
2020,08,18,15,04,24.90
2020,08,18,15,05,25.00
2020,08,18,15,06,25.00
2020,08,18,15,07,25.10
2020,08,18,15,08,25.20
2020,08,18,15,09,25.30
2020,08,18,15,10,25.30
2020,08,18,15,11,25.30
2020,08,18,15,12,25.40
2020,08,18,15,13,25.40
2020,08,18,15,14,25.40
2020,08,18,15,15,25.40
2020,08,18,15,16,25.40
2020,08,18,15,17,25.40
2020,08,18,15,18,25.40
2020,08,18,15,19,25.40
2020,08,18,15,20,25.40
2020,08,18,15,21,25.40
2020,08,18,15,22,25.40
2020,08,18,15,23,25.40
2020,08,18,15,24,25.50
2020,08,18,15,25,25.40
2020,08,18,15,26,25.40
2020,08,18,15,27,25.40
2020,08,18,15,28,25.40
2020,08,18,15,29,25.40
2020,08,18,15,30,25.40
2020,08,18,15,31,25.40
2020,08,18,15,32,25.30
2020,08,18,15,33,25.30
2020,08,18,15,34,25.20
2020,08,18,15,35,25.20
2020,08,18,15,36,25.10
2020,08,18,15,37,25.10
2020,08,18,15,38,25.10
2020,08,18,15,39,25.10
2020,08,18,15,40,25.00
2020,08,18,15,41,25.00
2020,08,18,15,42,25.00
2020,08,18,15,43,25.10
2020,08,18,15,44,25.10
2020,08,18,15,45,25.20
2020,08,18,15,46,25.30
2020,08,18,15,47,25.40
2020,08,18,15,48,25.40
2020,08,18,15,49,25.50
2020,08,18,15,50,25.50
2020,08,18,15,51,25.50
2020,08,18,15,52,25.50
2020,08,18,15,53,25.60
2020,08,18,15,54,25.50
2020,08,18,15,55,25.50
2020,08,18,15,56,25.50
2020,08,18,15,57,25.50
2020,08,18,15,58,25.50
2020,08,18,15,59,25.50
2020,08,18,16,00,25.40
2020,08,18,16,01,25.40
2020,08,18,16,02,25.40
2020,08,18,16,03,25.40
2020,08,18,16,04,25.40
2020,08,18,16,05,25.40
2020,08,18,16,06,25.40
2020,08,18,16,07,25.40
2020,08,18,16,08,25.30
2020,08,18,16,09,25.30
2020,08,18,16,10,25.30
2020,08,18,16,11,25.30
2020,08,18,16,12,25.30
2020,08,18,16,13,25.30
2020,08,18,16,14,25.30
2020,08,18,16,15,25.40
2020,08,18,16,16,25.40
2020,08,18,16,17,25.30
2020,08,18,16,18,25.30
2020,08,18,16,19,25.30
2020,08,18,16,20,25.30
2020,08,18,16,21,25.30
2020,08,18,16,22,25.40
2020,08,18,16,23,25.40
2020,08,18,16,24,25.30
2020,08,18,16,25,25.30
2020,08,18,16,26,25.30
2020,08,18,16,27,25.30
2020,08,18,16,28,25.30
2020,08,18,16,29,25.30
2020,08,18,16,30,25.40
2020,08,18,16,31,25.40
2020,08,18,16,32,25.40
2020,08,18,16,33,25.40
2020,08,18,16,34,25.50
2020,08,18,16,35,25.50
2020,08,18,16,36,25.50
2020,08,18,16,37,25.40
2020,08,18,16,38,25.40
2020,08,18,16,39,25.40
2020,08,18,16,40,25.40
2020,08,18,16,41,25.40
2020,08,18,16,42,25.40
2020,08,18,16,43,25.40
2020,08,18,16,44,25.40
2020,08,18,16,45,25.40
2020,08,18,16,46,25.40
2020,08,18,16,47,25.40
2020,08,18,16,48,25.30
2020,08,18,16,49,25.30
2020,08,18,16,50,25.30
2020,08,18,16,51,25.40
2020,08,18,16,52,25.40
2020,08,18,16,53,25.40
2020,08,18,16,54,25.40
2020,08,18,16,55,25.40
2020,08,18,16,56,25.40
2020,08,18,16,57,25.40
2020,08,18,16,58,25.40
2020,08,18,16,59,25.40
2020,08,18,17,00,25.40
2020,08,18,17,01,25.40
2020,08,18,17,02,25.40
2020,08,18,17,03,25.40
2020,08,18,17,04,25.30
2020,08,18,17,05,25.30
2020,08,18,17,06,25.40
2020,08,18,17,07,25.40
2020,08,18,17,08,25.40
2020,08,18,17,09,25.40
2020,08,18,17,10,25.50
2020,08,18,17,11,25.50
2020,08,18,17,12,25.50
2020,08,18,17,13,25.60
2020,08,18,17,14,25.60
2020,08,18,17,15,25.60
2020,08,18,17,16,25.60
2020,08,18,17,17,25.70
2020,08,18,17,18,25.70
2020,08,18,17,19,25.70
2020,08,18,17,20,25.70
2020,08,18,17,21,25.70
2020,08,18,17,22,25.80
2020,08,18,17,23,25.80
2020,08,18,17,24,25.80
2020,08,18,17,25,25.80
2020,08,18,17,26,25.80
2020,08,18,17,27,25.80
2020,08,18,17,28,25.70
2020,08,18,17,29,25.70
2020,08,18,17,30,25.70
2020,08,18,17,31,25.70
2020,08,18,17,32,25.70
2020,08,18,17,33,25.60
2020,08,18,17,34,25.60
2020,08,18,17,35,25.50
2020,08,18,17,36,25.40
2020,08,18,17,37,25.40
2020,08,18,17,38,25.30
2020,08,18,17,39,25.20
2020,08,18,17,40,25.20
2020,08,18,17,41,25.10
2020,08,18,17,42,25.10
2020,08,18,17,43,25.10
2020,08,18,17,44,25.00
2020,08,18,17,45,25.00
2020,08,18,17,46,24.90
2020,08,18,17,47,24.90
2020,08,18,17,48,24.90
2020,08,18,17,49,25.00
2020,08,18,17,50,25.00
2020,08,18,17,51,25.00
2020,08,18,17,52,25.00
2020,08,18,17,53,25.00
2020,08,18,17,54,25.00
2020,08,18,17,55,25.00
2020,08,18,17,56,24.90
2020,08,18,17,57,24.90
2020,08,18,17,58,24.90
2020,08,18,17,59,24.90
2020,08,18,18,00,24.80
2020,08,18,18,01,24.80
2020,08,18,18,02,24.80
2020,08,18,18,03,24.70
2020,08,18,18,04,24.70
2020,08,18,18,05,24.70
2020,08,18,18,06,24.70
2020,08,18,18,07,24.70
2020,08,18,18,08,24.70
2020,08,18,18,09,24.70
2020,08,18,18,10,24.70
2020,08,18,18,11,24.80
2020,08,18,18,12,24.80
2020,08,18,18,13,24.80
2020,08,18,18,14,24.80
2020,08,18,18,15,24.70
2020,08,18,18,16,24.70
2020,08,18,18,17,24.70
2020,08,18,18,18,24.70
2020,08,18,18,19,24.60
2020,08,18,18,20,24.60
2020,08,18,18,21,24.60
2020,08,18,18,22,24.60
2020,08,18,18,23,24.60
2020,08,18,18,24,24.60
2020,08,18,18,25,24.60
2020,08,18,18,26,24.60
2020,08,18,18,27,24.60
2020,08,18,18,28,24.60
2020,08,18,18,29,24.60
2020,08,18,18,30,24.60
2020,08,18,18,31,24.60
2020,08,18,18,32,24.60
2020,08,18,18,33,24.50
2020,08,18,18,34,24.50
2020,08,18,18,35,24.50
2020,08,18,18,36,24.50
2020,08,18,18,37,24.40
2020,08,18,18,38,24.40
2020,08,18,18,39,24.40
2020,08,18,18,40,24.40
2020,08,18,18,41,24.40
2020,08,18,18,42,24.40
2020,08,18,18,43,24.30
2020,08,18,18,44,24.30
2020,08,18,18,45,24.20
2020,08,18,18,46,24.20
2020,08,18,18,47,24.10
2020,08,18,18,48,24.00
2020,08,18,18,49,24.00
2020,08,18,18,50,23.90
2020,08,18,18,51,23.90
2020,08,18,18,52,23.80
2020,08,18,18,53,23.70
2020,08,18,18,54,23.70
2020,08,18,18,55,23.70
2020,08,18,18,56,23.60
2020,08,18,18,57,23.60
2020,08,18,18,58,23.50
2020,08,18,18,59,23.50
2020,08,18,19,00,23.50
2020,08,18,19,01,23.40
2020,08,18,19,02,23.40
2020,08,18,19,03,23.40
2020,08,18,19,04,23.40
2020,08,18,19,05,23.30
2020,08,18,19,06,23.30
2020,08,18,19,07,23.20
2020,08,18,19,08,23.20
2020,08,18,19,09,23.10
2020,08,18,19,10,23.10
2020,08,18,19,11,23.10
2020,08,18,19,12,23.00
2020,08,18,19,13,23.00
2020,08,18,19,14,22.90
2020,08,18,19,15,22.90
2020,08,18,19,16,22.80
2020,08,18,19,17,22.80
2020,08,18,19,18,22.70
2020,08,18,19,19,22.70
2020,08,18,19,20,22.60
2020,08,18,19,21,22.60
2020,08,18,19,22,22.50
2020,08,18,19,23,22.40
2020,08,18,19,24,22.40
2020,08,18,19,25,22.30
2020,08,18,19,26,22.30
2020,08,18,19,27,22.20
2020,08,18,19,28,22.20
2020,08,18,19,29,22.10
2020,08,18,19,30,22.10
2020,08,18,19,31,22.10
2020,08,18,19,32,22.00
2020,08,18,19,33,21.90
2020,08,18,19,34,21.90
2020,08,18,19,35,21.90
2020,08,18,19,36,21.80
2020,08,18,19,37,21.80
2020,08,18,19,38,21.80
2020,08,18,19,39,21.80
2020,08,18,19,40,21.70
2020,08,18,19,41,21.70
2020,08,18,19,42,21.70
2020,08,18,19,43,21.70
2020,08,18,19,44,21.60
2020,08,18,19,45,21.60
2020,08,18,19,46,21.60
2020,08,18,19,47,21.60
2020,08,18,19,48,21.50
2020,08,18,19,49,21.50
2020,08,18,19,50,21.50
2020,08,18,19,51,21.40
2020,08,18,19,52,21.40
2020,08,18,19,53,21.40
2020,08,18,19,54,21.30
2020,08,18,19,55,21.30
2020,08,18,19,56,21.30
2020,08,18,19,57,21.30
2020,08,18,19,58,21.20
2020,08,18,19,59,21.20
2020,08,18,20,00,21.20
2020,08,18,20,01,21.20
2020,08,18,20,02,21.10
2020,08,18,20,03,21.10
2020,08,18,20,04,21.10
2020,08,18,20,05,21.00
2020,08,18,20,06,21.00
2020,08,18,20,07,20.90
2020,08,18,20,08,20.90
2020,08,18,20,09,20.90
2020,08,18,20,10,20.90
2020,08,18,20,11,20.80
2020,08,18,20,12,20.80
2020,08,18,20,13,20.80
2020,08,18,20,14,20.80
2020,08,18,20,15,20.80
2020,08,18,20,16,20.70
2020,08,18,20,17,20.70
2020,08,18,20,18,20.70
2020,08,18,20,19,20.70
2020,08,18,20,20,20.70
2020,08,18,20,21,20.70
2020,08,18,20,22,20.60
2020,08,18,20,23,20.60
2020,08,18,20,24,20.60
2020,08,18,20,25,20.60
2020,08,18,20,26,20.60
2020,08,18,20,27,20.60
2020,08,18,20,28,20.50
2020,08,18,20,29,20.50
2020,08,18,20,30,20.50
2020,08,18,20,31,20.40
2020,08,18,20,32,20.40
2020,08,18,20,33,20.40
2020,08,18,20,34,20.30
2020,08,18,20,35,20.30
2020,08,18,20,36,20.30
2020,08,18,20,37,20.20
2020,08,18,20,38,20.20
2020,08,18,20,39,20.20
2020,08,18,20,40,20.10
2020,08,18,20,41,20.10
2020,08,18,20,42,20.00
2020,08,18,20,43,20.00
2020,08,18,20,44,20.00
2020,08,18,20,45,19.90
2020,08,18,20,46,19.90
2020,08,18,20,47,19.90
2020,08,18,20,48,19.90
2020,08,18,20,49,19.80
2020,08,18,20,50,19.80
2020,08,18,20,51,19.80
2020,08,18,20,52,19.80
2020,08,18,20,53,19.80
2020,08,18,20,54,19.80
2020,08,18,20,55,19.80
2020,08,18,20,56,19.80
2020,08,18,20,57,19.80
2020,08,18,20,58,19.80
2020,08,18,20,59,19.80
2020,08,18,21,00,19.80
2020,08,18,21,01,19.70
2020,08,18,21,02,19.70
2020,08,18,21,03,19.70
2020,08,18,21,04,19.70
2020,08,18,21,05,19.70
2020,08,18,21,06,19.70
2020,08,18,21,07,19.70
2020,08,18,21,08,19.70
2020,08,18,21,09,19.70
2020,08,18,21,10,19.70
2020,08,18,21,11,19.70
2020,08,18,21,12,19.70
2020,08,18,21,13,19.70
2020,08,18,21,14,19.70
2020,08,18,21,15,19.70
2020,08,18,21,16,19.70
2020,08,18,21,17,19.70
2020,08,18,21,18,19.60
2020,08,18,21,19,19.60
2020,08,18,21,20,19.60
2020,08,18,21,21,19.60
2020,08,18,21,22,19.60
2020,08,18,21,23,19.60
2020,08,18,21,24,19.60
2020,08,18,21,25,19.60
2020,08,18,21,26,19.50
2020,08,18,21,27,19.50
2020,08,18,21,28,19.50
2020,08,18,21,29,19.40
2020,08,18,21,30,19.40
2020,08,18,21,31,19.40
2020,08,18,21,32,19.40
2020,08,18,21,33,19.40
2020,08,18,21,34,19.40
2020,08,18,21,35,19.30
2020,08,18,21,36,19.30
2020,08,18,21,37,19.30
2020,08,18,21,38,19.30
2020,08,18,21,39,19.30
2020,08,18,21,40,19.30
2020,08,18,21,41,19.20
2020,08,18,21,42,19.20
2020,08,18,21,43,19.20
2020,08,18,21,44,19.20
2020,08,18,21,45,19.20
2020,08,18,21,46,19.20
2020,08,18,21,47,19.20
2020,08,18,21,48,19.20
2020,08,18,21,49,19.20
2020,08,18,21,50,19.20